Mackall AAF, NC

7:12 AM EDT on August 20, 2017 (GMT -0400)
Mackall Army Air Field

Weather History for KHFF - August, 2013

Change the Weather History Date:

Sunday, August 25, 2013

  Actual Average Record
Temperature  
Mean Temperature 70 °F -  
Max Temperature 80 °F 85 °F 93 °F (2011)
Min Temperature 60 °F 69 °F 60 °F (2013)
Cooling Degree Days 5    
Growing Degree Days 20 (Base 50)    
Moisture  
Dew Point 58 °F    
Average Humidity 70    
Maximum Humidity 97    
Minimum Humidity 37    
Precipitation  
Precipitation 0.00 in - - ()
Sea Level Pressure  
Sea Level Pressure 30.34 in    
Wind  
Wind Speed 6 mph (NNE)    
Max Wind Speed 13 mph    
Max Gust Speed 18 mph    
Visibility 12 miles    
Events      
Averages and records for this station are not official NWS values.
T = Trace of Precipitation, MM = Missing Value Source: NWS Daily Summary

Daily Weather History Graph

Daily Weather History Graph

Search for Another Location

Airport or City:

Trip Planner

Search our weather history database for the weather conditions in past years. The results will help you decide how hot, cold, wet, or windy it might be!

Date:

Astronomy

Aug. 25, 2013 Rise Set
Actual Time 6:45 AM EDT 7:53 PM EDT
Civil Twilight 6:19 AM EDT 8:19 PM EDT
Nautical Twilight 5:48 AM EDT 8:50 PM EDT
Astronomical Twilight 5:15 AM EDT 9:23 PM EDT
Moon 10:38 PM EDT (8/25) 11:32 AM EDT (8/25)
Length of Visible Light 14h 00m
Length of Day
13h 08m
Waning Gibbous, 76% of the Moon is Illuminated
Aug 25
Waning Gibbous
Aug 28
Last Quarter
Sep 5
New
Sep 12
First Quarter
Sep 19
Full

Hourly Weather History & Observations

Time (EDT) Temp. Dew Point Humidity Pressure Visibility Wind Dir Wind Speed Gust Speed Precip Events Conditions
12:56 AM 65.8 °F 61.9 °F 87% 30.31 in 12.0 mi North 3.5 mph - N/A   Partly Cloudy
1:56 AM 63.7 °F 61.5 °F 93% 30.31 in 12.0 mi North 2.3 mph - N/A   Clear
2:56 AM 63.3 °F 61.3 °F 93% 30.31 in 12.0 mi NNE 3.5 mph - N/A   Clear
3:56 AM 61.7 °F 59.9 °F 94% 30.31 in 12.0 mi NNW 3.5 mph - N/A   Clear
4:56 AM 60.8 °F 59.5 °F 96% 30.31 in 11.0 mi NNW 2.3 mph - N/A   Clear
5:56 AM 60.4 °F 59.2 °F 96% 30.32 in 11.0 mi NNW 4.6 mph - N/A   Clear
6:56 AM 60.3 °F 59.4 °F 97% 30.34 in 9.0 mi NNW 4.6 mph - N/A   Clear
7:56 AM 63.5 °F 62.2 °F 96% 30.38 in 12.0 mi North 3.5 mph - N/A   Clear
8:56 AM 68.7 °F 63.1 °F 82% 30.40 in 12.0 mi NNE 6.9 mph - N/A   Clear
9:56 AM 73.6 °F 59.0 °F 60% 30.40 in 12.0 mi NE 11.5 mph 18.4 mph N/A   Clear
10:56 AM 76.6 °F 57.6 °F 52% 30.39 in 12.0 mi ENE 11.5 mph 17.3 mph N/A   Clear
11:56 AM 76.8 °F 56.8 °F 50% 30.38 in 12.0 mi NE 11.5 mph 18.4 mph N/A   Partly Cloudy
12:56 PM 78.4 °F 54.5 °F 43% 30.36 in 12.0 mi ENE 12.7 mph 18.4 mph N/A   Partly Cloudy
1:56 PM 79.9 °F 55.4 °F 43% 30.35 in 12.0 mi NE 9.2 mph 16.1 mph N/A   Clear
2:56 PM 79.0 °F 54.0 °F 42% 30.34 in 12.0 mi ENE 11.5 mph 18.4 mph N/A   Clear
3:56 PM 79.9 °F 55.8 °F 43% 30.31 in 12.0 mi ENE 11.5 mph 17.3 mph N/A   Clear
4:56 PM 80.1 °F 52.9 °F 39% 30.30 in 12.0 mi NE 11.5 mph - N/A   Clear
5:56 PM 79.0 °F 50.7 °F 37% 30.30 in 12.0 mi NE 10.4 mph - N/A   Clear
6:56 PM 77.4 °F 53.1 °F 43% 30.30 in 12.0 mi East 5.8 mph - N/A   Clear
7:56 PM 72.5 °F 55.6 °F 55% 30.31 in 12.0 mi East 3.5 mph - N/A   Clear
8:56 PM 69.1 °F 56.8 °F 65% 30.31 in 12.0 mi ESE 2.3 mph - N/A   Clear
9:56 PM 62.6 °F 58.8 °F 87% 30.33 in 12.0 mi NNE 2.3 mph - N/A   Clear
10:56 PM 60.6 °F 58.1 °F 91% 30.35 in 12.0 mi NNW 5.8 mph - N/A   Clear
11:56 PM 60.6 °F 58.6 °F 93% 30.35 in 12.0 mi NNW 2.3 mph - N/A   Clear